Newburgh, IN (47629)

3:38 PM CDT on April 27, 2015 (GMT -0500)
0.5 Miles West Of Sharon School | | Change Station
CLOSE
Current Station
Personal Weather Station
Location: Newburgh, IN
Elevation: 435 ft
Nearby Weather Stations

Elev 435 ft 37.95 °N, 87.39 °W | Updated 5 seconds ago

Clear
Clear
63.7 °F
Feels Like 63.7 °F
N
4.1
Wind Variable Wind from NNE
Gusts 10.4 mph

Today
High -- | Low -- °F
--% Chance of Precip.
Yesterday
High -- | Low -- °F
Precip. -- in
5:58 AM 7:36 PM
Waxing Gibbous, 67% visible
Pressure 30.01 in
Visibility 10.0 miles
Clouds Clear
Dew Point 37 °F
Humidity 37%
Rainfall 0.00 in
Snow Depth Not available.
UV 8 out of 12
Pollen 9.30 out of 12
Air Quality Not available.
Flu Activity Local Activity
METAR KEVV 271954Z 35010KT 10SM CLR 18/03 A3001 RMK AO2 SLP162 T01780033

More Conditions Fewer Conditions

Pressure 30.01 in
Visibility 10.0 miles
Clouds Clear
Dew Point 37 °F
Humidity 37%
Rainfall 0.00 in
Snow Depth Not available.
UV 8 out of 12
Pollen 9.30 out of 12
Air Quality Not available.
Flu Activity Local Activity
METAR KEVV 271954Z 35010KT 10SM CLR 18/03 A3001 RMK AO2 SLP162 T01780033

More Conditions Fewer Conditions

10-Day Weather Forecast

Almanac

Astronomy

Apr. 27, 2015 Rise Set
Actual Time
Civil Twilight
Nautical Twilight
Astronomical Twilight
Moon
Length of Visible Light
Length of Day
Tomorrow will be .
, % of the Moon is Illuminated

Today's Extremes

State Highs State Lows

Community

WunderPhotos

Upload Photos

1,817,418 photos uploaded!

WunderBlogs® & News

Nearby

Air Quality

  Air Quality AQ Index Pollutant
Not available.

Snow Depth

Station Depth Elevation

Earthquake Activity

City Distance Mag. Time & Date
Minimum magnitude displayed is 2.5.

Coastal Water Temperatures

Place Temperature

Stations

Nearby Weather Stations

Station Location Temp. Windchill Dew Point Humidity Wind Precip. Elev Updated Type